Date String (YYYY-MM-DD hh:mm:ss) UTC,Instrument flags,Ambient pressure (hPa),Sample flow (lpm),Bypass flow (lpm),Sample temperature (°C),Ambient temperature (°C),ASC tube jacket temperature (°C),LED temperature (°C),Box temperature (°C),Sample RH (%),Span deviation,Mass concentration (μg/m³),Mass concentration (μg/m³),Mass concentration (μg/m³)
DateTimeUTC,F1_M11,P_M11,Q1_M11,Q2_M11,T1_M11,T2_M11,T3_M11,T4_M11,T5_M11,U1_M11,ZSPAN_M11,X0_M11,X2_M11,X1_M11
2022-10-14 04:00:00,,0828.1,4.99,0.00,29.4,27.7,00.0,38.3,31.2,11.8,0000.0,0013.22,0005.52,0004.89
2022-10-14 04:01:00,,0828.1,5.00,0.00,29.4,27.8,00.0,38.2,31.2,11.7,0000.0,0013.53,0005.50,0004.89
2022-10-14 04:02:00,,0828.1,5.02,0.00,29.4,27.7,00.0,38.2,31.2,11.8,0000.0,0013.61,0005.47,0004.89
2022-10-14 04:03:00,,0828.1,5.00,0.00,29.4,27.7,00.0,38.3,31.1,11.9,0000.0,0013.00,0005.42,0004.89
2022-10-14 04:04:00,,0828.1,5.00,0.00,29.4,27.7,00.0,38.2,31.1,11.9,0000.0,0013.15,0005.42,0004.89
2022-10-14 04:05:00,,0828.1,5.00,0.00,29.4,27.7,00.0,38.2,31.1,11.9,0000.0,0012.82,0005.40,0004.88
2022-10-14 04:06:00,,0828.1,5.00,0.00,29.4,27.7,00.0,38.2,31.1,11.8,0000.0,0012.82,0005.41,0004.87
2022-10-14 04:07:00,,0828.1,5.00,0.00,29.4,27.6,00.0,38.2,31.1,11.7,0000.0,0012.79,0005.40,0004.88
2022-10-14 04:08:00,,0828.1,5.00,0.00,29.4,27.6,00.0,38.2,31.1,11.7,0000.0,0012.84,0005.40,0004.87
2022-10-14 04:09:00,,0828.1,5.01,0.00,29.3,27.6,00.0,38.2,31.1,11.7,0000.0,0012.45,0005.40,0004.87
2022-10-14 04:10:00,,0828.1,5.00,0.00,29.3,27.6,00.0,38.2,31.1,11.8,0000.0,0011.50,0005.43,0004.87
2022-10-14 04:11:00,,0828.0,5.00,0.00,29.3,27.6,00.0,38.2,31.1,11.7,0000.0,0010.48,0005.41,0004.86
2022-10-14 04:12:00,,0828.0,5.00,0.00,29.3,27.6,00.0,38.2,31.1,11.7,0000.0,0010.82,0005.43,0004.87
2022-10-14 04:13:00,,0828.0,5.00,0.00,29.3,27.6,00.0,38.2,31.0,11.7,0000.0,0010.98,0005.49,0004.86
2022-10-14 04:14:00,,0828.1,5.00,0.00,29.3,27.6,00.0,38.2,31.1,11.8,0000.0,0011.02,0005.53,0004.87
2022-10-14 04:15:00,,0828.1,5.00,0.00,29.3,27.6,00.0,38.2,31.1,12.0,0000.0,0010.70,0005.55,0004.91
2022-10-14 04:16:00,,0828.1,5.00,0.00,29.3,27.6,00.0,38.2,31.1,12.1,0000.0,0010.88,0005.61,0004.95
2022-10-14 04:17:00,,0828.0,5.01,0.00,29.3,27.6,00.0,38.2,31.0,12.3,0000.0,0011.11,0005.72,0005.01
2022-10-14 04:18:00,,0828.0,4.99,0.00,29.3,27.6,00.0,38.2,31.1,12.3,0000.0,0010.82,0005.78,0005.08
2022-10-14 04:19:00,,0828.0,5.00,0.00,29.3,27.6,00.0,38.2,31.1,12.4,0000.0,0010.98,0005.84,0005.14
2022-10-14 04:20:00,,0828.0,5.00,0.00,29.3,27.6,00.0,38.2,31.1,12.4,0000.0,0011.49,0005.91,0005.22
2022-10-14 04:21:00,,0828.0,5.00,0.00,29.3,27.6,00.0,38.2,31.1,12.3,0000.0,0012.04,0005.98,0005.28
2022-10-14 04:22:00,,0828.0,5.01,0.00,29.3,27.6,00.0,38.1,31.1,12.3,0000.0,0012.23,0006.07,0005.34
2022-10-14 04:23:00,,0828.0,5.00,0.00,29.3,27.6,00.0,38.1,31.1,12.2,0000.0,0012.20,0006.14,0005.39
2022-10-14 04:24:00,,0828.0,5.00,0.00,29.3,27.6,00.0,38.1,31.0,12.2,0000.0,0012.21,0006.19,0005.46
2022-10-14 04:25:00,,0828.0,5.00,0.00,29.3,27.5,00.0,38.1,31.0,12.1,0000.0,0012.21,0006.21,0005.50
2022-10-14 04:26:00,,0828.1,5.00,0.00,29.2,27.5,00.0,38.1,31.0,12.1,0000.0,0012.34,0006.26,0005.51
2022-10-14 04:27:00,,0828.0,5.00,0.00,29.2,27.5,00.0,38.1,31.0,12.1,0000.0,0012.61,0006.29,0005.51
2022-10-14 04:28:00,,0828.0,5.00,0.00,29.2,27.5,00.0,38.1,31.0,12.3,0000.0,0012.60,0006.30,0005.53
2022-10-14 04:29:00,,0828.0,5.00,0.00,29.2,27.5,00.0,38.1,31.0,12.6,0000.0,0012.78,0006.36,0005.57
2022-10-14 04:30:00,,0828.0,5.00,0.00,29.2,27.5,00.0,38.1,31.0,12.4,0000.0,0013.82,0006.49,0005.59
2022-10-14 04:31:00,,0828.0,5.00,0.00,29.2,27.5,00.0,38.1,31.0,12.5,0000.0,0013.67,0006.57,0005.60
2022-10-14 04:32:00,,0828.0,5.00,0.00,29.2,27.5,00.0,38.1,31.0,12.6,0000.0,0013.66,0006.62,0005.64
2022-10-14 04:33:00,,0828.0,4.99,0.00,29.2,27.6,00.0,38.1,31.0,12.7,0000.0,0013.67,0006.66,0005.71
2022-10-14 04:34:00,,0828.0,4.99,0.00,29.2,27.6,00.0,38.1,31.0,12.6,0000.0,0013.46,0006.72,0005.77
2022-10-14 04:35:00,,0828.0,5.00,0.00,29.2,27.6,00.0,38.1,31.0,12.6,0000.0,0013.80,0006.81,0005.81
2022-10-14 04:36:00,,0828.0,5.01,0.00,29.2,27.6,00.0,38.1,31.0,12.7,0000.0,0014.67,0006.94,0005.89
2022-10-14 04:37:00,,0827.9,5.00,0.00,29.2,27.6,00.0,38.1,31.0,12.8,0000.0,0015.44,0007.04,0005.96
2022-10-14 04:38:00,,0827.8,5.00,0.00,29.2,27.5,00.0,38.1,31.0,12.8,0000.0,0016.21,0007.11,0006.04
2022-10-14 04:39:00,,0827.9,5.00,0.00,29.2,27.6,00.0,38.1,31.0,12.8,0000.0,0016.81,0007.18,0006.10
2022-10-14 04:40:00,,0827.9,5.00,0.00,29.2,27.6,00.0,38.1,31.0,12.9,0000.0,0017.54,0007.21,0006.12
2022-10-14 04:41:00,,0827.9,5.00,0.00,29.2,27.5,00.0,38.1,31.0,12.9,0000.0,0017.36,0007.22,0006.17
2022-10-14 04:42:00,,0827.9,5.01,0.00,29.2,27.5,00.0,38.1,31.0,12.7,0000.0,0017.16,0007.18,0006.19
2022-10-14 04:43:00,,0827.9,4.99,0.00,29.2,27.5,00.0,38.0,31.0,12.4,0000.0,0016.80,0007.12,0006.15
2022-10-14 04:44:00,,0827.9,4.99,0.00,29.2,27.5,00.0,38.0,31.0,12.4,0000.0,0016.61,0007.03,0006.09
2022-10-14 04:45:00,,0827.9,4.99,0.00,29.2,27.4,00.0,38.0,30.9,12.5,0000.0,0016.64,0006.98,0006.03
2022-10-14 04:46:00,,0827.9,5.02,0.00,29.1,27.4,00.0,38.0,30.9,12.5,0000.0,0016.37,0006.90,0005.99
2022-10-14 04:47:00,,0827.8,5.00,0.00,29.1,27.4,00.0,38.0,30.9,12.5,0000.0,0015.83,0006.82,0005.94
2022-10-14 04:48:00,,0827.8,5.00,0.00,29.1,27.4,00.0,38.0,30.9,12.5,0000.0,0015.12,0006.73,0005.88
2022-10-14 04:49:00,,0827.8,5.00,0.00,29.1,27.4,00.0,38.0,30.9,12.4,0000.0,0014.05,0006.66,0005.81
2022-10-14 04:50:00,,0827.7,4.99,0.00,29.1,27.4,00.0,38.0,30.9,12.4,0000.0,0013.43,0006.58,0005.75
2022-10-14 04:51:00,,0827.7,4.99,0.00,29.1,27.4,00.0,38.0,30.9,12.4,0000.0,0012.46,0006.46,0005.68
2022-10-14 04:52:00,,0827.7,5.02,0.00,29.1,27.4,00.0,38.0,30.9,12.4,0000.0,0011.42,0006.31,0005.60
2022-10-14 04:53:00,,0827.7,5.00,0.00,29.1,27.4,00.0,38.0,30.9,12.4,0000.0,0011.52,0006.28,0005.54
2022-10-14 04:54:00,,0827.7,4.99,0.00,29.1,27.3,00.0,38.0,30.9,12.2,0000.0,0011.45,0006.26,0005.51
2022-10-14 04:55:00,,0827.7,4.99,0.00,29.1,27.3,00.0,38.0,30.8,12.0,0000.0,0011.52,0006.23,0005.46
2022-10-14 04:56:00,,0827.7,5.00,0.00,29.1,27.3,00.0,38.0,30.8,11.9,0000.0,0011.11,0006.16,0005.39
2022-10-14 04:57:00,,0827.7,5.01,0.00,29.1,27.3,00.0,38.0,30.8,11.8,0000.0,0011.54,0006.09,0005.35
2022-10-14 04:58:00,,0827.7,5.00,0.00,29.1,27.3,00.0,38.0,30.8,11.7,0000.0,0011.65,0005.98,0005.29
2022-10-14 04:59:00,,0827.6,5.00,0.00,29.0,27.3,00.0,37.9,30.8,11.8,0000.0,0012.19,0005.92,0005.24
